sat.trackr.live / text

‹ back to catalog

STARLINK-2251

NORAD 48594 · 2021-041AT

PAYLOAD ACTIVE UNKNOWN

§ Identity

Operator
Country
US
Launch date
2021-05-15
Launch site
AFETR
Launch vehicle
Mass (kg)
RCS (m²)

Purposes: comms

External: N2YO · Heavens-Above · Gunter

§ Orbital elements

Epoch: 2026-05-25T04:42:00.582048Z

Period
94.16 min
Inclination
53.1603°
Eccentricity
0.0001043
Mean motion
15.29357911 rev/d
Perigee alt
477.0 km
Apogee alt
478.4 km
Semi-major
6,855.9 km
B*
-3.4874e-6
RAAN
118.6313°
Arg perigee
89.4757°
Mean anomaly
270.6363°
Rev number
27,716

§ Raw data

STARLINK-22511 48594U 21041AT  26145.19584007 -.00000456  00000+0 -34874-5 0  99972 48594  53.1603 118.6313 0001043  89.4757 270.6363 15.29357911277164

JSON: /api/v1/satellites/48594 · /tle

For live sub-satellite position, see the globe view (requires WebGL).

§ Visibility from observer

Set your observer location to see the next 7 days of passes ≥ 10°. The values pass through the URL so the page stays shareable.

No JS? Fill the form by hand. The geolocation button needs JavaScript.